Weather History for KBDN - March, 2013

Change the Weather History Date:

Thursday, March 21, 2013

  Actual Average (KRDM) Record (KRDM)
Temperature  
Mean Temperature 32 °F 41 °F  
Max Temperature 41 °F 55 °F 79 °F (1960)
Min Temperature 23 °F 27 °F 10 °F (2008)
Degree Days  
Heating Degree Days 33 24  
Month to date heating degree days 543  
Since 1 July heating degree days 5216  
Cooling Degree Days 0 0  
Month to date cooling degree days 0  
Year to date cooling degree days 0  
Moisture  
Dew Point 11 °F    
Average Humidity 47    
Maximum Humidity 69    
Minimum Humidity 19    
Precipitation  
Precipitation 0.00 in 0.02 in 0.50 in (2012)
Month to date precipitation 0.44  
Year to date precipitation 2.06  
Sea Level Pressure  
Sea Level Pressure 30.12 in    
Wind  
Wind Speed 6 mph (West)    
Max Wind Speed 17 mph    
Max Gust Speed 23 mph    
Visibility 10 miles    
Events      
T = Trace of Precipitation, MM = Missing Value Source: NWS Daily Summary

Daily Weather History Graph

Daily Weather History Graph

Search for Another Location

Airport or City:

Trip Planner

Search our weather history database for the weather conditions in past years. The results will help you decide how hot, cold, wet, or windy it might be!

Date:

Astronomy

Mar. 21, 2013 Rise Set
Actual Time 7:05 AM PDT 7:18 PM PDT
Civil Twilight 6:36 AM PDT 7:47 PM PDT
Nautical Twilight 6:02 AM PDT 8:21 PM PDT
Astronomical Twilight 5:28 AM PDT 8:56 PM PDT
Moon 1:43 PM PDT (3/21) 3:41 AM PDT (3/21)
Length of Visible Light 13h 11m
Length of Day
12h 13m
Waxing Gibbous, 69% of the Moon is Illuminated
Mar 21
Waxing Gibbous
Mar 27
Full
Apr 2
Last Quarter
Apr 10
New
Apr 18
First Quarter

Hourly Weather History & Observations

Time (PDT) Temp. Windchill Dew Point Humidity Pressure Visibility Wind Dir Wind Speed Gust Speed Precip Events Conditions
12:15 AM 28.4 °F 23.3 °F 19.4 °F 69% 30.05 in 10.0 mi NW 4.6 mph - N/A   Scattered Clouds
12:35 AM 28.4 °F - 19.4 °F 69% 30.06 in 10.0 mi Calm Calm - N/A   Partly Cloudy
12:55 AM 28.4 °F - 19.4 °F 69% 30.07 in 10.0 mi Calm Calm - N/A   Clear
1:35 AM 28.4 °F - 15.8 °F 59% 30.07 in 10.0 mi Calm Calm - N/A   Partly Cloudy
1:55 AM 26.6 °F - 15.8 °F 64% 30.08 in 10.0 mi Calm Calm - N/A   Clear
2:15 AM 24.8 °F - 15.8 °F 69% 30.08 in 10.0 mi Calm Calm - N/A   Clear
2:35 AM 24.8 °F - 15.8 °F 69% 30.09 in 10.0 mi Calm Calm - N/A   Clear
2:55 AM 24.8 °F - 14.0 °F 64% 30.09 in 10.0 mi Calm Calm - N/A   Partly Cloudy
3:15 AM 24.8 °F - 14.0 °F 64% 30.09 in 10.0 mi Calm Calm - N/A   Partly Cloudy
3:35 AM 23.0 °F - 14.0 °F 68% 30.09 in 10.0 mi Calm Calm - N/A   Partly Cloudy
3:55 AM 23.0 °F - 12.2 °F 63% 30.10 in 10.0 mi Calm Calm - N/A   Partly Cloudy
4:15 AM 24.8 °F 16.9 °F 10.4 °F 54% 30.10 in 10.0 mi SW 6.9 mph - N/A   Scattered Clouds
4:35 AM 24.8 °F - 10.4 °F 54% 30.10 in 10.0 mi Calm Calm - N/A   Partly Cloudy
4:55 AM 23.0 °F - 10.4 °F 59% 30.10 in 10.0 mi Calm Calm - N/A   Clear
5:15 AM 24.8 °F 17.9 °F 10.4 °F 54% 30.11 in 10.0 mi SW 5.8 mph - N/A   Clear
5:35 AM 26.6 °F 21.2 °F 10.4 °F 51% 30.10 in 10.0 mi SW 4.6 mph - N/A   Clear
5:55 AM 26.6 °F 16.2 °F 10.4 °F 51% 30.11 in 10.0 mi SW 11.5 mph - N/A   Clear
6:15 AM 26.6 °F 17.5 °F 12.2 °F 55% 30.11 in 10.0 mi SW 9.2 mph - N/A   Clear
6:35 AM 26.6 °F 19.1 °F 10.4 °F 51% 30.12 in 10.0 mi SW 6.9 mph - N/A   Clear
6:55 AM 26.6 °F 22.6 °F 12.2 °F 55% 30.12 in 10.0 mi WSW 3.5 mph - N/A   Clear
7:15 AM 24.8 °F 20.5 °F 12.2 °F 59% 30.12 in 10.0 mi SSW 3.5 mph - N/A   Clear
7:35 AM 24.8 °F 19.1 °F 12.2 °F 59% 30.12 in 10.0 mi SW 4.6 mph - N/A   Clear
7:55 AM 26.6 °F 19.1 °F 14.0 °F 59% 30.13 in 10.0 mi SW 6.9 mph - N/A   Clear
8:15 AM 28.4 °F 21.2 °F 14.0 °F 55% 30.13 in 10.0 mi SSW 6.9 mph - N/A   Partly Cloudy
8:35 AM 30.2 °F 21.3 °F 14.0 °F 51% 30.13 in 10.0 mi SW 10.4 mph - N/A   Scattered Clouds
8:55 AM 32.0 °F 23.6 °F 14.0 °F 48% 30.13 in 10.0 mi SSW 10.4 mph - N/A   Scattered Clouds
9:15 AM 32.0 °F 24.2 °F 14.0 °F 48% 30.13 in 10.0 mi SW 9.2 mph - N/A   Mostly Cloudy
10:15 AM 33.8 °F 24.8 °F 12.2 °F 41% 30.14 in 10.0 mi SW 12.7 mph 18.4 mph N/A   Partly Cloudy
10:55 AM 35.6 °F 29.2 °F 6.8 °F 30% 30.14 in 10.0 mi West 8.1 mph - N/A   Mostly Cloudy
11:15 AM 35.6 °F 26.6 °F 8.6 °F 33% 30.14 in 10.0 mi SW 13.8 mph - N/A   Scattered Clouds
11:35 AM 37.4 °F 28.5 °F 10.4 °F 33% 30.14 in 10.0 mi SSW 15.0 mph 23.0 mph N/A   Scattered Clouds
11:55 AM 37.4 °F 28.5 °F 10.4 °F 33% 30.14 in 10.0 mi SSW 15.0 mph 18.4 mph N/A   Mostly Cloudy
12:15 PM 39.2 °F 30.2 °F 14.0 °F 36% 30.13 in 10.0 mi SSW 17.3 mph 20.7 mph N/A   Scattered Clouds
12:35 PM 37.4 °F 28.9 °F 8.6 °F 30% 30.13 in 10.0 mi WSW 13.8 mph 17.3 mph N/A   Mostly Cloudy
12:55 PM 37.4 °F 31.4 °F 5.0 °F 26% 30.14 in 10.0 mi WNW 8.1 mph - N/A   Scattered Clouds
1:15 PM 37.4 °F 29.8 °F 6.8 °F 28% 30.14 in 10.0 mi NW 11.5 mph - N/A   Mostly Cloudy
1:35 PM 39.2 °F 31.2 °F 3.2 °F 22% 30.14 in 10.0 mi NNW 13.8 mph 18.4 mph N/A   Scattered Clouds
1:55 PM 37.4 °F 28.9 °F 5.0 °F 26% 30.13 in 10.0 mi NNW 13.8 mph 20.7 mph N/A   Mostly Cloudy
2:15 PM 37.4 °F 28.2 °F 5.0 °F 26% 30.12 in 10.0 mi WNW 16.1 mph 23.0 mph N/A   Partly Cloudy
2:55 PM 39.2 °F 32.5 °F 1.4 °F 21% 30.12 in 10.0 mi WNW 10.4 mph - N/A   Scattered Clouds
3:15 PM 39.2 °F 33.6 °F 1.4 °F 21% 30.11 in 10.0 mi WNW 8.1 mph - N/A   Scattered Clouds
3:35 PM 39.2 °F 33.6 °F -0.4 °F 19% 30.10 in 10.0 mi WSW 8.1 mph - N/A   Partly Cloudy
3:55 PM 39.2 °F 33.0 °F 3.2 °F 22% 30.09 in 10.0 mi SSW 9.2 mph - N/A   Mostly Cloudy
4:15 PM 41.0 °F 33.9 °F 6.8 °F 24% 30.10 in 10.0 mi NNW 12.7 mph - N/A   Mostly Cloudy
4:35 PM 39.2 °F 31.2 °F 10.4 °F 31% 30.10 in 10.0 mi NNW 13.8 mph 20.7 mph N/A   Mostly Cloudy
4:55 PM 37.4 °F 29.3 °F 10.4 °F 33% 30.10 in 10.0 mi NW 12.7 mph 21.9 mph N/A   Partly Cloudy
5:15 PM 37.4 °F 29.8 °F 8.6 °F 30% 30.11 in 10.0 mi NW 11.5 mph - N/A   Clear
5:35 PM 37.4 °F 30.8 °F 8.6 °F 30% 30.11 in 10.0 mi NW 9.2 mph 16.1 mph N/A   Clear
5:55 PM 35.6 °F 28.0 °F 8.6 °F 33% 30.10 in 10.0 mi NW 10.4 mph - N/A   Partly Cloudy
6:15 PM 37.4 °F 32.8 °F 6.8 °F 28% 30.10 in 10.0 mi North 5.8 mph - N/A   Partly Cloudy
6:55 PM 35.6 °F 28.6 °F 5.0 °F 28% 30.11 in 10.0 mi NW 9.2 mph - N/A   Mostly Cloudy
7:15 PM 33.8 °F 27.0 °F 8.6 °F 35% 30.11 in 10.0 mi NNW 8.1 mph - N/A   Partly Cloudy
7:55 PM 32.0 °F 26.4 °F 17.6 °F 55% 30.12 in 10.0 mi WNW 5.8 mph - N/A   Clear
8:15 PM 30.2 °F 26.7 °F 17.6 °F 60% 30.13 in 10.0 mi WNW 3.5 mph - N/A   Clear
8:35 PM 30.2 °F 26.7 °F 17.6 °F 60% 30.14 in 10.0 mi WSW 3.5 mph - N/A   Clear
8:55 PM 30.2 °F 25.4 °F 17.6 °F 60% 30.14 in 10.0 mi WSW 4.6 mph - N/A   Clear
9:15 PM 28.4 °F 21.2 °F 17.6 °F 64% 30.14 in 10.0 mi SW 6.9 mph - N/A   Clear
9:35 PM 30.2 °F 21.3 °F 17.6 °F 60% 30.14 in 10.0 mi WNW 10.4 mph - N/A   Clear
9:55 PM 28.4 °F 19.7 °F 15.8 °F 59% 30.14 in 10.0 mi NW 9.2 mph - N/A   Clear
10:15 PM 28.4 °F 21.2 °F 15.8 °F 59% 30.14 in 10.0 mi WNW 6.9 mph - N/A   Clear
10:35 PM 28.4 °F - 15.8 °F 59% 30.14 in 10.0 mi Calm Calm - N/A   Clear
10:55 PM 28.4 °F - 17.6 °F 64% 30.15 in 10.0 mi Calm Calm - N/A   Clear
11:15 PM 28.4 °F 20.4 °F 14.0 °F 55% 30.16 in 10.0 mi NW 8.1 mph - N/A   Clear
11:35 PM 28.4 °F 17.5 °F 8.6 °F 43% 30.15 in 10.0 mi NW 13.8 mph 20.7 mph N/A   Clear
11:55 PM 28.4 °F 19.1 °F 6.8 °F 40% 30.15 in 10.0 mi NW 10.4 mph 23.0 mph N/A   Clear